Location: Archamps
(46.1365°N, 6.1329°E)
Time: 00:43:38
(UTC+00:00)

Cosmos 1763 Rocket - Pass Details

Date: 28 January 2023
Orbit: 733 x 778 km, 74.0° (Epoch: 24 March)

Event Time Altitude Azimuth Distance (km) Brightness Sun altitude
Rises 18:58:11 0° 338° (NNW) 3,237 7.0 -24.9°
Reaches altitude 10° 19:00:35 10° 338° (NNW) 2,300 6.2 -25.3°
Maximum altitude 19:05:48 90° 22° (NNE) 759 3.3 -26.3°
Enters shadow 19:05:57 85° 158° (SSE) 761 3.3 -26.3°
